AFL287 UACC-UUEE

Flight info

Callsign AFL287
Flight time 3h 2m
Altitude 40000
Route KODOL1B KODOL T523 ATBAN L994 TITUR N985 ORTIM L158 DIMGI DIMGI3E
Aircraft A359/H-SDE2E3GHIJ3J4J5LM1ORWXY/LB1D1

Departure

Time 2026-04-26 11:02
Airport Nursultan Nazarbayev International Airport (UACC)

Arrival

Time 2026-04-26 14:04
Airport Sheremetyevo International Airport (UUEE)
Time Latitude Longitude Altitude Speed Heading
2026-04-26 10:22 51.02829 71.46560 1168 ft 0 kts 317°
2026-04-26 10:48 51.02822 71.46570 1170 ft 2 kts 318°
2026-04-26 10:48 51.02810 71.46586 1165 ft 2 kts 323°
2026-04-26 10:48 51.02796 71.46601 1165 ft 2 kts 329°
2026-04-26 10:49 51.02781 71.46613 1166 ft 2 kts 339°
2026-04-26 10:49 51.02766 71.46620 1165 ft 2 kts 353°
2026-04-26 10:49 51.02749 71.46619 1168 ft 2 kts 13°
2026-04-26 10:49 51.02734 71.46610 1165 ft 2 kts 32°
2026-04-26 10:50 51.02722 71.46597 1165 ft 1 kts 42°
2026-04-26 10:50 51.02720 71.46593 1165 ft 1 kts 43°
2026-04-26 10:57 51.02769 71.46668 1166 ft 16 kts 44°
2026-04-26 10:57 51.02806 71.46730 1166 ft 8 kts 50°
2026-04-26 10:57 51.02788 71.46866 1166 ft 16 kts 124°
2026-04-26 10:58 51.02798 71.47001 1165 ft 17 kts 50°
2026-04-26 10:58 51.02932 71.47212 1166 ft 37 kts 44°
2026-04-26 10:58 51.03154 71.47556 1165 ft 52 kts 44°
2026-04-26 10:58 51.03406 71.47959 1165 ft 26 kts 57°
2026-04-26 10:59 51.03430 71.48131 1170 ft 14 kts 90°
2026-04-26 10:59 51.03430 71.48143 1170 ft 0 kts 90°
2026-04-26 10:59 51.03430 71.48202 1170 ft 16 kts 91°
2026-04-26 10:59 51.03376 71.48320 1167 ft 0 kts 173°
2026-04-26 11:00 51.03314 71.48272 1167 ft 21 kts 221°
2026-04-26 11:00 51.03269 71.48203 1167 ft 0 kts 224°
2026-04-26 11:01 51.03269 71.48202 1167 ft 3 kts 224°
2026-04-26 11:01 51.03268 71.48201 1167 ft 0 kts 224°
2026-04-26 11:01 51.03126 71.47978 1168 ft 65 kts 224°
2026-04-26 11:01 51.02646 71.47230 1169 ft 127 kts 225°
2026-04-26 11:02 51.01898 71.46101 1429 ft 156 kts 226°
2026-04-26 11:02 51.01133 71.45019 2385 ft 142 kts 221°
2026-04-26 11:02 51.00382 71.43823 2805 ft 163 kts 222°
2026-04-26 11:02 50.99521 71.42444 3049 ft 189 kts 222°
2026-04-26 11:03 50.98535 71.40876 3346 ft 213 kts 222°
2026-04-26 11:03 50.97432 71.39129 3615 ft 235 kts 224°
2026-04-26 11:03 50.96600 71.36828 4148 ft 250 kts 253°
2026-04-26 11:03 50.96604 71.34046 4908 ft 255 kts 272°
2026-04-26 11:04 50.96900 71.31254 5635 ft 257 kts 274°
2026-04-26 11:04 50.97221 71.28468 6329 ft 258 kts 274°
2026-04-26 11:04 50.97529 71.25693 6995 ft 260 kts 274°
2026-04-26 11:04 50.97831 71.22851 7666 ft 261 kts 274°
2026-04-26 11:05 50.98129 71.19997 8358 ft 262 kts 274°
2026-04-26 11:05 50.98423 71.17134 9052 ft 264 kts 274°
2026-04-26 11:05 50.98716 71.14231 9737 ft 266 kts 274°
2026-04-26 11:05 50.99010 71.11295 10298 ft 273 kts 274°
2026-04-26 11:06 50.99313 71.08230 10566 ft 290 kts 274°
2026-04-26 11:06 50.99525 71.06091 10732 ft 301 kts 275°
2026-04-26 11:06 51.00024 71.01623 11120 ft 319 kts 279°
2026-04-26 11:06 51.00581 70.98187 11623 ft 325 kts 281°
2026-04-26 11:07 51.01186 70.94707 12191 ft 328 kts 281°
2026-04-26 11:07 51.01799 70.91198 12749 ft 331 kts 281°
2026-04-26 11:07 51.02421 70.87654 13292 ft 335 kts 282°
2026-04-26 11:07 51.03233 70.84150 13832 ft 341 kts 288°
2026-04-26 11:08 51.04183 70.80677 14356 ft 343 kts 289°
2026-04-26 11:08 51.05160 70.77211 14889 ft 345 kts 290°
2026-04-26 11:08 51.06144 70.73719 15423 ft 347 kts 289°
2026-04-26 11:08 51.07128 70.70207 15963 ft 348 kts 289°
2026-04-26 11:09 51.08113 70.66669 16515 ft 350 kts 289°
2026-04-26 11:09 51.09099 70.63114 17033 ft 352 kts 289°
2026-04-26 11:09 51.10088 70.59541 17565 ft 354 kts 289°
2026-04-26 11:09 51.11084 70.55931 18086 ft 356 kts 289°
2026-04-26 11:10 51.12073 70.52342 18562 ft 358 kts 289°
2026-04-26 11:10 51.13076 70.48695 19013 ft 360 kts 289°
2026-04-26 11:10 51.14082 70.45032 19471 ft 362 kts 289°
2026-04-26 11:10 51.15091 70.41350 19928 ft 364 kts 289°
2026-04-26 11:11 51.16107 70.37637 20395 ft 366 kts 288°
2026-04-26 11:11 51.17127 70.33904 20838 ft 367 kts 288°
2026-04-26 11:11 51.18149 70.30158 21255 ft 369 kts 288°
2026-04-26 11:11 51.19176 70.26387 21702 ft 371 kts 288°
2026-04-26 11:12 51.20206 70.22602 22151 ft 373 kts 288°
2026-04-26 11:12 51.21239 70.18794 22562 ft 375 kts 288°
2026-04-26 11:12 51.22263 70.15016 22968 ft 377 kts 288°
2026-04-26 11:12 51.23306 70.11163 23391 ft 379 kts 288°
2026-04-26 11:13 51.24351 70.07292 23757 ft 381 kts 288°
2026-04-26 11:13 51.25403 70.03394 24093 ft 382 kts 288°
2026-04-26 11:13 51.26455 69.99487 24423 ft 384 kts 288°
2026-04-26 11:13 51.27579 69.95587 24755 ft 389 kts 292°
2026-04-26 11:14 51.28478 69.93104 24993 ft 392 kts 296°
2026-04-26 11:14 51.29983 69.89428 25334 ft 396 kts 298°
2026-04-26 11:14 51.31577 69.85820 25659 ft 399 kts 300°
2026-04-26 11:14 51.33230 69.82221 26015 ft 402 kts 301°
2026-04-26 11:15 51.34902 69.78628 26363 ft 404 kts 301°
2026-04-26 11:15 51.36583 69.75009 26719 ft 406 kts 300°
2026-04-26 11:15 51.38262 69.71355 27096 ft 409 kts 300°
2026-04-26 11:15 51.39940 69.67665 27453 ft 411 kts 300°
2026-04-26 11:16 51.41622 69.63933 27844 ft 414 kts 300°
2026-04-26 11:16 51.43284 69.60224 28240 ft 416 kts 300°
2026-04-26 11:16 51.44975 69.56435 28625 ft 419 kts 299°
2026-04-26 11:16 51.46676 69.52618 29007 ft 422 kts 299°
2026-04-26 11:17 51.48389 69.48770 29418 ft 425 kts 299°
2026-04-26 11:17 51.50111 69.44896 29818 ft 428 kts 299°
2026-04-26 11:17 51.51846 69.40990 30173 ft 431 kts 299°
2026-04-26 11:17 51.53592 69.37055 30539 ft 433 kts 299°
2026-04-26 11:18 51.55342 69.33106 30924 ft 435 kts 299°
2026-04-26 11:18 51.57100 69.29136 31313 ft 437 kts 299°
2026-04-26 11:18 51.58872 69.25124 31681 ft 439 kts 299°
2026-04-26 11:18 51.60642 69.21112 32048 ft 441 kts 299°
2026-04-26 11:19 51.62419 69.17078 32426 ft 442 kts 299°
2026-04-26 11:19 51.64201 69.13023 32766 ft 444 kts 299°
2026-04-26 11:19 51.65966 69.09002 33100 ft 446 kts 299°
2026-04-26 11:19 51.67759 69.04909 33428 ft 448 kts 299°
2026-04-26 11:20 51.69557 69.00799 33758 ft 450 kts 299°
2026-04-26 11:20 51.71363 68.96665 34043 ft 452 kts 299°
2026-04-26 11:20 51.73177 68.92504 34283 ft 455 kts 299°
2026-04-26 11:20 51.74998 68.88321 34508 ft 457 kts 299°
2026-04-26 11:21 51.76828 68.84114 34789 ft 458 kts 299°
2026-04-26 11:21 51.78652 68.79913 35124 ft 458 kts 299°
2026-04-26 11:21 51.80482 68.75694 35435 ft 458 kts 299°
2026-04-26 11:21 51.82308 68.71475 35755 ft 458 kts 299°
2026-04-26 11:22 51.84129 68.67259 36059 ft 459 kts 299°
2026-04-26 11:22 51.85954 68.63027 36359 ft 459 kts 299°
2026-04-26 11:22 51.87785 68.58773 36660 ft 460 kts 299°
2026-04-26 11:22 51.89614 68.54517 36960 ft 460 kts 299°
2026-04-26 11:23 51.91437 68.50266 37268 ft 460 kts 299°
2026-04-26 11:23 51.93268 68.45993 37565 ft 460 kts 299°
2026-04-26 11:23 51.95094 68.41723 37870 ft 461 kts 299°
2026-04-26 11:23 51.96847 68.37393 38166 ft 458 kts 295°
2026-04-26 11:24 51.98329 68.32850 38453 ft 455 kts 291°
2026-04-26 11:24 51.99709 68.28240 38720 ft 454 kts 291°
2026-04-26 11:24 52.01052 68.23585 38922 ft 454 kts 290°
2026-04-26 11:24 52.02372 68.18910 39106 ft 455 kts 290°
2026-04-26 11:25 52.03675 68.14234 39304 ft 455 kts 289°
2026-04-26 11:25 52.04975 68.09541 39490 ft 456 kts 289°
2026-04-26 11:25 52.06266 68.04886 39669 ft 456 kts 290°
2026-04-26 11:25 52.07573 68.00184 39844 ft 457 kts 290°
2026-04-26 11:26 52.08891 67.95445 39951 ft 459 kts 290°
2026-04-26 11:26 52.10213 67.90692 39966 ft 464 kts 290°
2026-04-26 11:26 52.12879 67.81108 39966 ft 465 kts 290°
2026-04-26 11:27 52.15539 67.71515 39971 ft 465 kts 290°
2026-04-26 11:27 52.18188 67.61918 39972 ft 465 kts 289°
2026-04-26 11:28 52.20820 67.52357 39971 ft 465 kts 289°
2026-04-26 11:28 52.23461 67.42704 39975 ft 465 kts 289°
2026-04-26 11:29 52.26091 67.33026 39978 ft 466 kts 289°
2026-04-26 11:29 52.28713 67.23347 39980 ft 466 kts 289°
2026-04-26 11:30 52.30890 67.15287 39977 ft 466 kts 289°
2026-04-26 11:30 52.33927 67.03998 39986 ft 467 kts 289°
2026-04-26 11:31 52.36535 66.94256 39981 ft 467 kts 289°
2026-04-26 11:31 52.39135 66.84504 39979 ft 467 kts 289°
2026-04-26 11:32 52.41729 66.74736 39981 ft 467 kts 289°
2026-04-26 11:32 52.44274 66.65011 39979 ft 467 kts 288°
2026-04-26 11:33 52.46787 66.55184 39978 ft 467 kts 288°
2026-04-26 11:33 52.49287 66.45331 39983 ft 468 kts 288°
2026-04-26 11:34 52.51792 66.35456 39980 ft 468 kts 288°
2026-04-26 11:34 52.54291 66.25588 39980 ft 468 kts 288°
2026-04-26 11:35 52.56787 66.15693 39983 ft 468 kts 288°
2026-04-26 11:35 52.58854 66.07459 39980 ft 469 kts 288°
2026-04-26 11:36 52.61727 65.95849 39976 ft 469 kts 287°
2026-04-26 11:36 52.64185 65.85892 39975 ft 469 kts 287°
2026-04-26 11:37 52.66632 65.75995 39971 ft 469 kts 288°
2026-04-26 11:37 52.69090 65.66032 39971 ft 468 kts 287°
2026-04-26 11:38 52.71526 65.56114 39970 ft 468 kts 287°
2026-04-26 11:38 52.73968 65.46124 39968 ft 468 kts 287°
2026-04-26 11:39 52.76418 65.36168 39964 ft 468 kts 288°
2026-04-26 11:39 52.78931 65.26308 39963 ft 469 kts 288°
2026-04-26 11:40 52.81453 65.16389 39963 ft 468 kts 288°
2026-04-26 11:40 52.83895 65.06405 39961 ft 468 kts 287°
2026-04-26 11:42 52.93419 64.66309 39950 ft 467 kts 287°
2026-04-26 11:43 52.95766 64.56333 39950 ft 467 kts 287°
2026-04-26 11:43 52.98123 64.46267 39948 ft 467 kts 287°
2026-04-26 11:44 53.00472 64.36188 39949 ft 468 kts 287°
2026-04-26 11:44 53.02809 64.26109 39944 ft 468 kts 287°
2026-04-26 11:45 53.05142 64.16004 39943 ft 468 kts 287°
2026-04-26 11:45 53.07451 64.05954 39943 ft 468 kts 287°
2026-04-26 11:46 53.09767 63.95826 39940 ft 468 kts 287°
2026-04-26 11:46 53.12075 63.85683 39927 ft 468 kts 287°
2026-04-26 11:47 53.14373 63.75533 39945 ft 468 kts 287°
2026-04-26 11:47 53.16651 63.65428 39938 ft 468 kts 287°
2026-04-26 11:48 53.18698 63.55136 39931 ft 465 kts 279°
2026-04-26 11:48 53.19891 63.44564 39932 ft 464 kts 277°
2026-04-26 11:49 53.20925 63.33910 39936 ft 465 kts 277°
2026-04-26 11:49 53.21940 63.23276 39936 ft 464 kts 277°
2026-04-26 11:50 53.22950 63.12695 39936 ft 464 kts 277°
2026-04-26 11:50 53.23963 63.02035 39942 ft 464 kts 277°
2026-04-26 11:51 53.24967 62.91376 39947 ft 464 kts 277°
2026-04-26 11:51 53.25961 62.80723 39942 ft 464 kts 277°
2026-04-26 11:52 53.26779 62.71863 39954 ft 464 kts 276°
2026-04-26 11:52 53.27912 62.59470 39947 ft 464 kts 276°
2026-04-26 11:53 53.28877 62.48811 39949 ft 464 kts 276°
2026-04-26 11:54 53.30315 62.32819 39955 ft 463 kts 276°
2026-04-26 11:54 53.31262 62.22157 39959 ft 463 kts 276°
2026-04-26 11:55 53.32199 62.11499 39957 ft 463 kts 276°
2026-04-26 11:55 53.33120 62.00902 39964 ft 463 kts 276°
2026-04-26 11:56 53.34037 61.90240 39967 ft 463 kts 276°
2026-04-26 11:56 53.34946 61.79557 39966 ft 463 kts 276°
2026-04-26 11:57 53.35844 61.68880 39965 ft 463 kts 276°
2026-04-26 11:57 53.36734 61.58200 39968 ft 463 kts 276°
2026-04-26 11:58 53.37613 61.47514 39969 ft 463 kts 276°
2026-04-26 11:58 53.38478 61.36890 39974 ft 463 kts 276°
2026-04-26 11:59 53.39338 61.26196 39972 ft 463 kts 276°
2026-04-26 11:59 53.40537 61.15599 39972 ft 466 kts 285°
2026-04-26 12:00 53.43011 61.05511 39975 ft 468 kts 291°
2026-04-26 12:00 53.45810 60.95626 39974 ft 469 kts 292°
2026-04-26 12:01 53.48639 60.85833 39971 ft 469 kts 292°
2026-04-26 12:01 53.51469 60.75952 39965 ft 469 kts 292°
2026-04-26 12:02 53.53802 60.67727 39963 ft 468 kts 292°
2026-04-26 12:02 53.56592 60.57821 39966 ft 468 kts 292°
2026-04-26 12:03 53.59376 60.47887 39967 ft 468 kts 292°
2026-04-26 12:03 53.62151 60.37947 39960 ft 469 kts 292°
2026-04-26 12:04 53.64920 60.27995 39954 ft 469 kts 292°
2026-04-26 12:04 53.67680 60.18029 39952 ft 469 kts 292°
2026-04-26 12:05 53.70432 60.08052 39955 ft 469 kts 292°
2026-04-26 12:05 53.73157 59.98122 39954 ft 469 kts 292°
2026-04-26 12:06 53.75888 59.88115 39955 ft 469 kts 291°
2026-04-26 12:06 53.78613 59.78096 39959 ft 469 kts 291°
2026-04-26 12:07 53.81333 59.68050 39957 ft 469 kts 291°
2026-04-26 12:07 53.84043 59.58003 39957 ft 469 kts 291°
2026-04-26 12:08 53.86746 59.47931 39954 ft 469 kts 291°
2026-04-26 12:08 53.89321 59.37792 39952 ft 467 kts 287°
2026-04-26 12:09 53.91163 59.27209 39958 ft 467 kts 283°
2026-04-26 12:09 53.92819 59.16580 39959 ft 467 kts 282°
2026-04-26 12:10 53.94423 59.05944 39963 ft 467 kts 282°
2026-04-26 12:10 53.96029 58.95253 39964 ft 467 kts 282°
2026-04-26 12:11 53.97632 58.84568 39970 ft 467 kts 282°
2026-04-26 12:11 53.99231 58.73868 39972 ft 467 kts 282°
2026-04-26 12:12 54.00811 58.63218 39974 ft 467 kts 282°
2026-04-26 12:12 54.02389 58.52517 39977 ft 466 kts 282°
2026-04-26 12:13 54.04177 58.41916 39979 ft 463 kts 287°
2026-04-26 12:13 54.06263 58.31692 39985 ft 454 kts 287°
2026-04-26 12:14 54.08367 58.21640 39983 ft 452 kts 287°
2026-04-26 12:14 54.10473 58.11538 39979 ft 452 kts 287°
2026-04-26 12:15 54.12562 58.01422 39980 ft 452 kts 287°
2026-04-26 12:15 54.14640 57.91288 39978 ft 452 kts 287°
2026-04-26 12:16 54.16707 57.81149 39980 ft 452 kts 287°
2026-04-26 12:16 54.18767 57.70993 39978 ft 452 kts 287°
2026-04-26 12:17 54.20805 57.60898 39980 ft 452 kts 287°
2026-04-26 12:17 54.22845 57.50738 39979 ft 452 kts 287°
2026-04-26 12:18 54.24879 57.40555 39976 ft 452 kts 287°
2026-04-26 12:18 54.26900 57.30386 39974 ft 452 kts 287°
2026-04-26 12:19 54.28918 57.20182 39973 ft 452 kts 287°
2026-04-26 12:19 54.30927 57.09989 39969 ft 452 kts 287°
2026-04-26 12:20 54.32909 56.99844 39967 ft 452 kts 286°
2026-04-26 12:20 54.34895 56.89619 39968 ft 452 kts 286°
2026-04-26 12:21 54.36877 56.79369 39962 ft 452 kts 286°
2026-04-26 12:21 54.38852 56.69106 39961 ft 452 kts 286°
2026-04-26 12:22 54.40816 56.58851 39960 ft 452 kts 286°
2026-04-26 12:22 54.42774 56.48571 39960 ft 452 kts 286°
2026-04-26 12:23 54.44709 56.38358 39957 ft 452 kts 286°
2026-04-26 12:23 54.46651 56.28067 39961 ft 452 kts 286°
2026-04-26 12:24 54.48579 56.17754 39960 ft 452 kts 286°
2026-04-26 12:24 54.50495 56.07451 39964 ft 452 kts 285°
2026-04-26 12:25 54.53363 55.91936 39965 ft 461 kts 285°
2026-04-26 12:25 54.55314 55.81272 39964 ft 471 kts 285°
2026-04-26 12:26 54.57253 55.70392 39965 ft 478 kts 285°
2026-04-26 12:26 54.59205 55.59369 39962 ft 482 kts 285°
2026-04-26 12:27 54.61165 55.48270 39956 ft 483 kts 285°
2026-04-26 12:27 54.63110 55.37172 39951 ft 483 kts 285°
2026-04-26 12:28 54.65038 55.26114 39945 ft 483 kts 285°
2026-04-26 12:28 54.66949 55.14980 39939 ft 483 kts 284°
2026-04-26 12:29 54.68766 55.03797 39936 ft 483 kts 283°
2026-04-26 12:30 54.71437 54.86978 39938 ft 483 kts 283°
2026-04-26 12:30 54.73216 54.75829 39933 ft 483 kts 284°
2026-04-26 12:31 54.75884 54.58992 39933 ft 483 kts 283°
2026-04-26 12:31 54.77653 54.47742 39935 ft 483 kts 283°
2026-04-26 12:32 54.79400 54.36562 39932 ft 483 kts 283°
2026-04-26 12:33 54.82021 54.19644 39938 ft 483 kts 283°
2026-04-26 12:33 54.83763 54.08380 39933 ft 483 kts 283°
2026-04-26 12:34 54.85488 53.97187 39934 ft 483 kts 283°
2026-04-26 12:34 54.87215 53.85899 39932 ft 483 kts 283°
2026-04-26 12:35 54.88928 53.74615 39929 ft 483 kts 283°
2026-04-26 12:35 54.90621 53.63386 39921 ft 483 kts 283°
2026-04-26 12:36 54.92335 53.52032 39934 ft 483 kts 283°
2026-04-26 12:36 54.94013 53.40792 39929 ft 482 kts 283°
2026-04-26 12:37 54.95689 53.29488 39931 ft 482 kts 283°
2026-04-26 12:37 54.97361 53.18147 39921 ft 482 kts 282°
2026-04-26 12:38 54.98995 53.06903 39919 ft 482 kts 282°
2026-04-26 12:38 55.00627 52.95584 39921 ft 482 kts 282°
2026-04-26 12:39 55.02251 52.84260 39917 ft 482 kts 282°
2026-04-26 12:39 55.03864 52.72939 39915 ft 481 kts 282°
2026-04-26 12:40 55.05471 52.61601 39914 ft 481 kts 282°
2026-04-26 12:40 55.07065 52.50261 39910 ft 481 kts 282°
2026-04-26 12:41 55.08640 52.38982 39907 ft 481 kts 282°
2026-04-26 12:41 55.10210 52.27644 39905 ft 480 kts 282°
2026-04-26 12:42 55.11772 52.16287 39905 ft 480 kts 282°
2026-04-26 12:42 55.13320 52.04947 39897 ft 480 kts 281°
2026-04-26 12:43 55.14860 51.93575 39896 ft 480 kts 281°
2026-04-26 12:43 55.16377 51.82287 39890 ft 479 kts 281°
2026-04-26 12:44 55.17891 51.70937 39890 ft 479 kts 281°
2026-04-26 12:44 55.19396 51.59570 39887 ft 479 kts 281°
2026-04-26 12:45 55.20889 51.48204 39882 ft 478 kts 281°
2026-04-26 12:45 55.22372 51.36821 39878 ft 478 kts 281°
2026-04-26 12:46 55.23842 51.25446 39878 ft 478 kts 281°
2026-04-26 12:46 55.25299 51.14091 39870 ft 478 kts 281°
2026-04-26 12:47 55.26735 51.02801 39867 ft 477 kts 281°
2026-04-26 12:47 55.28138 50.91397 39863 ft 477 kts 279°
2026-04-26 12:48 55.29231 50.81910 39858 ft 477 kts 279°
2026-04-26 12:48 55.30529 50.70491 39846 ft 477 kts 279°
2026-04-26 12:49 55.31833 50.59062 39851 ft 477 kts 279°
2026-04-26 12:49 55.33134 50.47630 39846 ft 477 kts 279°
2026-04-26 12:50 55.34430 50.36163 39840 ft 477 kts 279°
2026-04-26 12:50 55.35705 50.24769 39836 ft 478 kts 279°
2026-04-26 12:51 55.36976 50.13307 39832 ft 478 kts 279°
2026-04-26 12:51 55.38238 50.01823 39826 ft 478 kts 279°
2026-04-26 12:52 55.39107 49.90260 39825 ft 476 kts 274°
2026-04-26 12:52 55.39716 49.78636 39816 ft 476 kts 273°
2026-04-26 12:53 55.40272 49.67009 39807 ft 476 kts 273°
2026-04-26 12:53 55.40819 49.55404 39805 ft 476 kts 273°
2026-04-26 12:54 55.41365 49.43774 39802 ft 476 kts 273°
2026-04-26 12:54 55.41905 49.32162 39799 ft 476 kts 273°
2026-04-26 12:55 55.42429 49.20626 39802 ft 476 kts 272°
2026-04-26 12:55 55.42940 49.08990 39797 ft 476 kts 272°
2026-04-26 12:56 55.43442 48.97360 39795 ft 476 kts 272°
2026-04-26 12:56 55.43676 48.91597 40325 ft 453 kts 272°
2026-04-26 12:56 55.43890 48.86057 40705 ft 456 kts 271°
2026-04-26 12:56 55.44108 48.80418 40483 ft 466 kts 272°
2026-04-26 12:57 55.44331 48.74723 40236 ft 475 kts 272°
2026-04-26 12:57 55.44564 48.68893 39994 ft 478 kts 272°
2026-04-26 12:57 55.44801 48.63049 39805 ft 477 kts 272°
2026-04-26 12:58 55.46567 48.45803 39762 ft 480 kts 283°
2026-04-26 12:58 55.48497 48.34524 39756 ft 480 kts 284°
2026-04-26 12:59 55.50473 48.23346 39753 ft 480 kts 284°
2026-04-26 12:59 55.52441 48.12080 39755 ft 480 kts 284°
2026-04-26 13:00 55.54378 48.00778 39738 ft 480 kts 284°
2026-04-26 13:00 55.56283 47.89536 39733 ft 480 kts 284°
2026-04-26 13:01 55.58186 47.78231 39735 ft 480 kts 284°
2026-04-26 13:01 55.60080 47.66914 39732 ft 480 kts 284°
2026-04-26 13:02 55.61966 47.55573 39735 ft 480 kts 283°
2026-04-26 13:02 55.63840 47.44227 39726 ft 480 kts 283°
2026-04-26 13:03 55.65704 47.32870 39718 ft 480 kts 283°
2026-04-26 13:03 55.67551 47.21543 39722 ft 481 kts 283°
2026-04-26 13:04 55.69399 47.10150 39710 ft 481 kts 283°
2026-04-26 13:04 55.71232 46.98788 39713 ft 470 kts 283°
2026-04-26 13:05 55.72118 46.93279 39713 ft 458 kts 283°
2026-04-26 13:05 55.72984 46.87870 39713 ft 453 kts 283°
2026-04-26 13:05 55.74679 46.77196 39701 ft 452 kts 282°
2026-04-26 13:06 55.76377 46.66431 39694 ft 452 kts 282°
2026-04-26 13:06 55.78067 46.55658 39688 ft 453 kts 282°
2026-04-26 13:07 55.79411 46.44761 39686 ft 450 kts 274°
2026-04-26 13:07 55.79931 46.33738 39680 ft 449 kts 271°
2026-04-26 13:08 55.80283 46.22658 39677 ft 449 kts 270°
2026-04-26 13:08 55.80599 46.11580 39673 ft 449 kts 270°
2026-04-26 13:09 55.80920 46.00482 39671 ft 449 kts 270°
2026-04-26 13:09 55.81244 45.89439 39664 ft 449 kts 270°
2026-04-26 13:10 55.81565 45.78334 39663 ft 450 kts 270°
2026-04-26 13:10 55.81878 45.67222 39659 ft 450 kts 270°
2026-04-26 13:11 55.82179 45.56098 39649 ft 450 kts 270°
2026-04-26 13:11 55.82470 45.44974 39650 ft 450 kts 270°
2026-04-26 13:12 55.82751 45.33836 39647 ft 451 kts 270°
2026-04-26 13:12 55.83023 45.22681 39640 ft 451 kts 270°
2026-04-26 13:13 55.83284 45.11525 39638 ft 451 kts 270°
2026-04-26 13:13 55.83534 45.00429 39633 ft 452 kts 269°
2026-04-26 13:14 55.83783 44.89274 39629 ft 452 kts 269°
2026-04-26 13:14 55.84023 44.78071 39626 ft 452 kts 269°
2026-04-26 13:15 55.84252 44.66881 39620 ft 452 kts 269°
2026-04-26 13:15 55.84435 44.57579 39619 ft 452 kts 269°
2026-04-26 13:16 55.84681 44.44493 39612 ft 452 kts 269°
2026-04-26 13:16 55.84879 44.33365 39611 ft 452 kts 269°
2026-04-26 13:17 55.85160 44.16546 39598 ft 452 kts 269°
2026-04-26 13:18 55.85416 43.99811 39595 ft 452 kts 269°
2026-04-26 13:19 55.85651 43.82997 39587 ft 452 kts 268°
2026-04-26 13:19 55.85793 43.71867 39577 ft 452 kts 268°
2026-04-26 13:20 55.85927 43.60678 39581 ft 452 kts 268°
2026-04-26 13:20 55.86051 43.49479 39567 ft 452 kts 268°
2026-04-26 13:21 55.86173 43.38250 39560 ft 453 kts 268°
2026-04-26 13:21 55.86284 43.27037 39560 ft 453 kts 268°
2026-04-26 13:22 55.86384 43.15830 39555 ft 453 kts 268°
2026-04-26 13:22 55.86474 43.04594 39549 ft 453 kts 268°
2026-04-26 13:23 55.86552 42.93419 39545 ft 453 kts 268°
2026-04-26 13:23 55.86622 42.82184 39539 ft 454 kts 268°
2026-04-26 13:24 55.86683 42.70938 39536 ft 454 kts 268°
2026-04-26 13:24 55.86733 42.59692 39530 ft 454 kts 268°
2026-04-26 13:25 55.86772 42.48457 39527 ft 454 kts 267°
2026-04-26 13:25 55.86801 42.37266 39519 ft 454 kts 267°
2026-04-26 13:26 55.86818 42.26008 39516 ft 454 kts 267°
2026-04-26 13:26 55.86827 42.14722 39511 ft 455 kts 267°
2026-04-26 13:27 55.86827 42.03449 39508 ft 455 kts 267°
2026-04-26 13:27 55.86815 41.92230 39506 ft 455 kts 267°
2026-04-26 13:27 55.86805 41.86606 39369 ft 458 kts 267°
2026-04-26 13:28 55.86791 41.80882 39140 ft 464 kts 267°
2026-04-26 13:28 55.86768 41.75100 38907 ft 466 kts 266°
2026-04-26 13:28 55.86665 41.69344 38683 ft 465 kts 265°
2026-04-26 13:28 55.86498 41.63592 38462 ft 464 kts 264°
2026-04-26 13:29 55.86303 41.57858 38250 ft 464 kts 264°
2026-04-26 13:29 55.86169 41.54059 38089 ft 464 kts 264°
2026-04-26 13:29 55.85902 41.46381 37712 ft 463 kts 264°
2026-04-26 13:29 55.85709 41.40680 37446 ft 461 kts 264°
2026-04-26 13:30 55.85524 41.35068 37193 ft 459 kts 264°
2026-04-26 13:30 55.85336 41.29330 36919 ft 458 kts 264°
2026-04-26 13:30 55.85152 41.23749 36656 ft 456 kts 263°
2026-04-26 13:30 55.84965 41.18102 36396 ft 455 kts 263°
2026-04-26 13:31 55.84777 41.12487 36142 ft 453 kts 263°
2026-04-26 13:31 55.84586 41.06901 35888 ft 451 kts 263°
2026-04-26 13:31 55.84389 41.01343 35640 ft 450 kts 263°
2026-04-26 13:31 55.84178 40.95793 35397 ft 448 kts 262°
2026-04-26 13:32 55.83966 40.90274 35147 ft 445 kts 262°
2026-04-26 13:32 55.83760 40.84797 34909 ft 442 kts 262°
2026-04-26 13:32 55.83627 40.81198 34707 ft 440 kts 262°
2026-04-26 13:32 55.83429 40.75800 34259 ft 434 kts 262°
2026-04-26 13:33 55.83169 40.68734 33609 ft 428 kts 262°
2026-04-26 13:33 55.82976 40.63484 33044 ft 424 kts 262°
2026-04-26 13:33 55.82783 40.58292 32547 ft 417 kts 261°
2026-04-26 13:33 55.82579 40.53172 32064 ft 411 kts 261°
2026-04-26 13:34 55.82444 40.49827 31744 ft 407 kts 261°
2026-04-26 13:34 55.82240 40.44837 31264 ft 402 kts 261°
2026-04-26 13:34 55.82040 40.39911 30791 ft 397 kts 260°
2026-04-26 13:34 55.81907 40.36686 30474 ft 393 kts 260°
2026-04-26 13:35 55.81638 40.30252 29856 ft 387 kts 259°
2026-04-26 13:35 55.81438 40.25510 29364 ft 382 kts 259°
2026-04-26 13:35 55.81236 40.20831 28876 ft 376 kts 259°
2026-04-26 13:35 55.81032 40.16238 28420 ft 370 kts 259°
2026-04-26 13:36 55.80831 40.11712 27959 ft 364 kts 259°
2026-04-26 13:36 55.80633 40.07259 27532 ft 359 kts 259°
2026-04-26 13:36 55.80439 40.02909 27093 ft 354 kts 258°
2026-04-26 13:36 55.80245 39.98573 26659 ft 350 kts 258°
2026-04-26 13:37 55.80055 39.94317 26459 ft 340 kts 258°
2026-04-26 13:37 55.79873 39.90204 26340 ft 329 kts 258°
2026-04-26 13:37 55.79840 39.86153 26349 ft 335 kts 265°
2026-04-26 13:37 55.80121 39.81883 26301 ft 361 kts 271°
2026-04-26 13:38 55.80589 39.77409 26146 ft 372 kts 273°
2026-04-26 13:38 55.81115 39.72898 25891 ft 373 kts 273°
2026-04-26 13:38 55.81650 39.68388 25631 ft 372 kts 273°
2026-04-26 13:38 55.82180 39.63901 25383 ft 371 kts 273°
2026-04-26 13:39 55.82707 39.59402 25131 ft 370 kts 273°
2026-04-26 13:39 55.83228 39.54919 24882 ft 370 kts 273°
2026-04-26 13:39 55.83746 39.50447 24630 ft 369 kts 273°
2026-04-26 13:39 55.84260 39.45993 24383 ft 366 kts 273°
2026-04-26 13:40 55.84768 39.41554 24141 ft 367 kts 273°
2026-04-26 13:40 55.85271 39.37157 23900 ft 366 kts 274°
2026-04-26 13:40 55.85778 39.32715 23653 ft 366 kts 274°
2026-04-26 13:40 55.86285 39.28242 23429 ft 368 kts 274°
2026-04-26 13:41 55.86791 39.23796 23196 ft 365 kts 274°
2026-04-26 13:41 55.87291 39.19372 22956 ft 364 kts 274°
2026-04-26 13:41 55.87787 39.14960 22672 ft 363 kts 274°
2026-04-26 13:41 55.88281 39.10553 22397 ft 360 kts 274°
2026-04-26 13:42 55.88769 39.06190 22117 ft 360 kts 274°
2026-04-26 13:42 55.89256 39.01799 21834 ft 361 kts 274°
2026-04-26 13:42 55.89743 38.97411 21593 ft 361 kts 274°
2026-04-26 13:42 55.90229 38.93025 21313 ft 360 kts 274°
2026-04-26 13:43 55.90714 38.88626 21041 ft 360 kts 274°
2026-04-26 13:43 55.91186 38.84323 20784 ft 359 kts 274°
2026-04-26 13:43 55.91672 38.79893 20521 ft 359 kts 274°
2026-04-26 13:43 55.92147 38.75536 20261 ft 358 kts 274°
2026-04-26 13:44 55.92615 38.71224 20001 ft 357 kts 274°
2026-04-26 13:44 55.93086 38.66881 19745 ft 357 kts 274°
2026-04-26 13:44 55.93556 38.62520 19492 ft 357 kts 274°
2026-04-26 13:44 55.94025 38.58143 19246 ft 359 kts 274°
2026-04-26 13:45 55.94493 38.53798 19002 ft 356 kts 274°
2026-04-26 13:45 55.94959 38.49452 18755 ft 355 kts 273°
2026-04-26 13:45 55.95418 38.45127 18504 ft 355 kts 273°
2026-04-26 13:45 55.95876 38.40804 18277 ft 354 kts 273°
2026-04-26 13:46 55.96330 38.36538 18056 ft 345 kts 273°
2026-04-26 13:46 55.96771 38.32360 17720 ft 341 kts 273°
2026-04-26 13:46 55.97204 38.28220 17301 ft 337 kts 273°
2026-04-26 13:46 55.97625 38.24177 16929 ft 333 kts 273°
2026-04-26 13:47 55.98044 38.20152 16699 ft 324 kts 273°
2026-04-26 13:47 55.98451 38.16264 16574 ft 312 kts 272°
2026-04-26 13:47 55.98840 38.12517 16436 ft 301 kts 272°
2026-04-26 13:47 55.99214 38.08891 16303 ft 293 kts 272°
2026-04-26 13:48 55.99579 38.05317 16010 ft 291 kts 272°
2026-04-26 13:48 55.99940 38.01760 15723 ft 290 kts 272°
2026-04-26 13:48 56.00301 37.98213 15441 ft 289 kts 272°
2026-04-26 13:48 56.00662 37.94680 15266 ft 294 kts 272°
2026-04-26 13:49 56.01041 37.91013 15141 ft 304 kts 273°
2026-04-26 13:49 56.01434 37.87288 14928 ft 305 kts 274°
2026-04-26 13:49 56.01829 37.83568 14710 ft 304 kts 274°
2026-04-26 13:49 56.02335 37.79917 14958 ft 308 kts 282°
2026-04-26 13:50 56.03485 37.76658 14521 ft 324 kts 309°
2026-04-26 13:50 56.05398 37.74380 14040 ft 335 kts 329°
2026-04-26 13:50 56.07515 37.72647 13629 ft 334 kts 332°
2026-04-26 13:50 56.09636 37.70976 13234 ft 332 kts 332°
2026-04-26 13:51 56.11742 37.69285 12787 ft 330 kts 332°
2026-04-26 13:51 56.13788 37.67451 12353 ft 326 kts 328°
2026-04-26 13:51 56.15753 37.65469 11959 ft 322 kts 327°
2026-04-26 13:51 56.17678 37.63462 11568 ft 318 kts 326°
2026-04-26 13:52 56.19571 37.61466 11242 ft 313 kts 326°
2026-04-26 13:52 56.21440 37.59485 10911 ft 311 kts 326°
2026-04-26 13:52 56.23299 37.57507 10592 ft 309 kts 327°
2026-04-26 13:52 56.25148 37.55539 10269 ft 308 kts 327°
2026-04-26 13:53 56.26989 37.53574 9941 ft 306 kts 327°
2026-04-26 13:53 56.28786 37.51563 9635 ft 303 kts 321°
2026-04-26 13:53 56.30192 37.48904 9340 ft 295 kts 298°
2026-04-26 13:53 56.30837 37.45499 9053 ft 284 kts 272°
2026-04-26 13:54 56.30635 37.42037 8787 ft 276 kts 249°
2026-04-26 13:54 56.29692 37.39097 8525 ft 271 kts 226°
2026-04-26 13:54 56.28345 37.36736 8269 ft 270 kts 224°
2026-04-26 13:55 56.25796 37.31753 7727 ft 269 kts 214°
2026-04-26 13:55 56.24701 37.30735 7561 ft 268 kts 198°
2026-04-26 13:55 56.20609 37.31312 7242 ft 244 kts 165°
2026-04-26 13:56 56.19025 37.32136 7129 ft 234 kts 165°
2026-04-26 13:56 56.17492 37.32933 7004 ft 224 kts 165°
2026-04-26 13:56 56.16089 37.33972 6854 ft 217 kts 150°
2026-04-26 13:56 56.14957 37.35692 6719 ft 210 kts 136°
2026-04-26 13:57 56.13991 37.37596 6569 ft 203 kts 134°
2026-04-26 13:57 56.13063 37.39493 6427 ft 199 kts 132°
2026-04-26 13:57 56.12169 37.41338 6262 ft 197 kts 133°
2026-04-26 13:57 56.11255 37.43199 6061 ft 198 kts 133°
2026-04-26 13:58 56.10339 37.45020 5855 ft 199 kts 134°
2026-04-26 13:58 56.09399 37.46864 5549 ft 201 kts 134°
2026-04-26 13:58 56.08453 37.48723 5221 ft 201 kts 133°
2026-04-26 13:58 56.07517 37.50568 4971 ft 199 kts 133°
2026-04-26 13:59 56.06598 37.52383 4729 ft 199 kts 132°
2026-04-26 13:59 56.05675 37.54239 4474 ft 199 kts 131°
2026-04-26 13:59 56.04750 37.56097 4254 ft 199 kts 131°
2026-04-26 14:00 56.01951 37.61591 3679 ft 199 kts 132°
2026-04-26 14:00 56.01017 37.63413 3497 ft 198 kts 133°
2026-04-26 14:00 56.00329 37.64513 3321 ft 199 kts 144°
2026-04-26 14:01 55.98580 37.65003 2962 ft 197 kts 199°
2026-04-26 14:01 55.97544 37.63511 2755 ft 193 kts 239°
2026-04-26 14:01 55.97267 37.61321 2558 ft 174 kts 278°
2026-04-26 14:01 55.97686 37.59486 2503 ft 152 kts 307°
2026-04-26 14:02 55.98343 37.58121 2506 ft 138 kts 314°
2026-04-26 14:02 55.98982 37.56901 2499 ft 132 kts 314°
2026-04-26 14:02 55.99397 37.55445 2501 ft 134 kts 287°
2026-04-26 14:02 55.99419 37.53777 2501 ft 139 kts 261°
2026-04-26 14:03 55.99097 37.52145 2497 ft 139 kts 251°
2026-04-26 14:03 55.98760 37.50498 2183 ft 146 kts 259°
2026-04-26 14:03 55.98472 37.48655 1586 ft 160 kts 255°
2026-04-26 14:03 55.98182 37.46747 1093 ft 161 kts 261°
2026-04-26 14:04 55.97908 37.44866 798 ft 152 kts 257°
2026-04-26 14:04 55.97638 37.43109 641 ft 141 kts 256°
2026-04-26 14:04 55.97448 37.41812 639 ft 56 kts 255°
2026-04-26 14:04 55.97394 37.41458 641 ft 23 kts 255°
2026-04-26 14:05 55.97422 37.41231 642 ft 19 kts 328°
2026-04-26 14:05 55.97527 37.41171 638 ft 0 kts 346°
2026-04-26 14:06 55.97528 37.41170 637 ft 2 kts 346°
2026-04-26 14:06 55.97609 37.41139 639 ft 17 kts 358°
2026-04-26 14:06 55.97637 37.41160 642 ft 10 kts 36°
2026-04-26 14:07 55.97687 37.41382 639 ft 28 kts 75°
2026-04-26 14:07 55.97706 37.41484 645 ft 10 kts 57°
2026-04-26 14:07 55.97776 37.41520 636 ft 0 kts 358°
2026-04-26 14:07 55.97853 37.41500 642 ft 1 kts 13°
2026-04-26 14:08 55.97865 37.41528 642 ft 8 kts 58°
2026-04-26 14:08 55.97888 37.41651 635 ft 0 kts 73°